Location: Beneden-Haastrecht
(52.0012°N, 4.7557°E)
Time: 04:43:24
(UTC+00:00)

Cosmos 2297 Rocket - Pass Details

Date: 24 October 2020
Orbit: 838 x 845 km, 71.0° (Epoch: 25 November)

Event Time Altitude Azimuth Distance (km) Brightness Sun altitude
Rises 17:00:43 0° 330° (NNW) 3,416 5.6 -5.8°
Reaches altitude 10° 17:03:22 10° 339° (NNW) 2,478 4.8 -6.2°
Maximum altitude 17:08:37 37° 46° (NE) 1,296 2.8 -7.0°
Drops below altitude 10° 17:13:51 10° 113° (ESE) 2,466 4.1 -7.8°
Enters shadow 17:16:08 - 121° (ESE) 3,273 4.8 -8.1°
